Torna al catalogo

IRIDIUM 33 DEB

AttivoPO
NORAD 35918·DEBRIS·🇺🇸 United States

Lanciato Sep 14, 1997 da Baikonur Cosmodrome

Loading…

Prossimi Passaggi (prossime 24 ore)

TLE

AggiornatoSource: Space-Track

Epoca: Sep 13, 2026, 22:22 UTC

1 35918U 97051UB  26256.93211713  .00002134  00000-0  50854-3 0  9991
2 35918  86.4023 317.5135 0023688 332.2023 202.9719 14.53184625892017

Traccia IRIDIUM 33 DEB in tempo reale con AllMySat

Download on the App Store